Regional Weather Roundup
Issued by NWS Newport/Morehead, NC

Current Version | Previous Version | Graphics & Text | Print | Product List | Glossary Off
Versions: 1 2 3 4 5 6 7 8 9 10 11 12 13 14 15 16 17 18 19 20 21 22 23 24 25 26 27 28 29 30 31 32 33 34 35 36 37 38 39 40 41 42 43 44 45 46 47 48 49 50

000
ASUS42 KMHX 020322
RWRMHX
WEATHER ROUNDUP FOR EASTERN NORTH CAROLINA
NATIONAL WEATHER SERVICE NEWPORT/MOREHEAD CITY NC
1100 PM EDT FRI AUG 01 2014

NOTE: "FAIR" INDICATES FEW OR NO CLOUDS BELOW 12,000 FEET
WITH NO SIGNIFICANT WEATHER AND/OR OBSTRUCTIONS TO VISIBILITY

NCZ015>017-031-032-045>047-102-103-020400-
NORTH COAST

CITY           SKY/WX    TMP DP  RH WIND       PRES   REMARKS
EDENTON        CLOUDY    74  73  96 SE9       30.07F
ELIZABETH CITY LGT RAIN  75  72  88 SE6       30.09F
KITTY HAWK     CLOUDY    75  73  92 SE5       30.07F
MANTEO         NOT AVBL

$$

NCZ045>047-081-094-103-104-020400-
CENTRAL COAST

CITY           SKY/WX    TMP DP  RH WIND       PRES   REMARKS
FRISCO         CLOUDY    76  73  91 SE12      30.09S
SWANQUARTER      N/A     77 N/A N/A S7        30.03F

$$

NCZ095-097-098-100-101-020400-
SOUTHERN COAST

CITY           SKY/WX    TMP DP  RH WIND       PRES   REMARKS
BEAUFORT       PTCLDY    76  74  93 SE5       30.07F
CEDAR ISLAND     N/A     75 N/A N/A SE5       30.12S
JACKSONVILLE   MOCLDY    76  74  93 CALM      30.06F
NEWPORT        NOT AVBL
PINEY ISLAND   MOCLDY    76  76 100 SE5       30.07F
WILMINGTON     CLOUDY    76  73  91 CALM      30.06F


$$

NCZ011>013-027>030-043-044-078>080-089-090>093-098-020400-
COASTAL PLAIN

CITY           SKY/WX    TMP DP  RH WIND       PRES   REMARKS
AHOSKIE        CLOUDY    66  65  95 N6        30.09S
CLINTON        CLOUDY    70  70 100 CALM      30.08S
ELIZABETHTOWN  CLOUDY    73  73 100 CALM      30.07S
GOLDSBORO      CLOUDY    70  70 100 N5        30.06F
GREENVILLE     RAIN      70  70 100 CALM      30.09S
HAVELOCK       PTCLDY    74  72  93 SE3       30.08F
KENANSVILLE    CLOUDY    74  73  95 CALM      30.08S
KINSTON        CLOUDY    75  74  96 S3        30.08S
NEW BERN       CLOUDY    76  73  91 CALM      30.08F
RICHLANDS      CLOUDY    73  72  94 CALM      30.07F
ROANOKE RAPIDS NOT AVBL
ROCKY MOUNT    CLOUDY    67  66  97 N6        30.09S
WASHINGTON     MOCLDY    74  72  94 S3        30.08S
WHITEVILLE     CLOUDY    75  73  93 CALM      30.06R

$$

AMZ130-135-150-152-154-156-158-170-250-252-270-ANZ085-086-088-633-658-670-020400-
MARINE OBSERVATIONS

STATION/POSITION TIME  TEMP    WIND        PRES    WAVE   SWELL
                       AIR SEA DIR/SP/G            HT/PER HT/PER
                 (UTC) (F)     (DEG/KT/KT) (MB)    (FT/S) (FT/S)
CHESAPEAKE LIGHT NOT AVBL
BUOY 44014       0300   76 78  130/ 16/ 21 1019.0    4/ 5   2/ 7
DUCK             0300      76                N/A
2E DUCK          0300                        N/A     4/ 5
OREGON INLET     0300      77                N/A
BUOY 44095       0300      77                N/A     4/ 3
20E OREGON INLET NOT AVBL
HATTERAS CG      0300                      1019.3
DIAMOND BUOY     0300          VRB 12/ 14  1019.0    3/ 6   2/ 6
CAPE LOOKOUT     0300   78     210/  4/  5 1018.0
BEAUFORT LAB     0300                      1017.7
30 SE NEW RIVER  0300   80 81  170/  8/ 10 1018.2    4/ 6   3/ 6
5 SE WRIGHTSVILL 0300   76 81  170/ 10/ 12   N/A
BUOY 41002       0247   81 81  140/ 14/ 16 1019.5    5/ 7   3/ 7
BUOY 41004       0300   81 82  150/  6/  8 1016.3    4/ 5   3/ 5

$$



USA.gov is the U.S. government's official web portal to all federal, state and local government web resources and services.